{"data":{"norad_id":53318,"intl_designator":"2022-088C","name":"YAOGAN-35 03B","alt_names":[],"object_type":"PAYLOAD","status":"ACTIVE","operator":null,"country":"PRC","launch_date":"2022-07-29","launch_site_code":"XICLF","launch_vehicle":null,"mission":null,"orbit_class":"UNKNOWN","rcs_meters":null,"size_class":null,"mass_kg":null,"dimensions":null,"purposes":[],"wikipedia_slug":null,"has_3d_model":false,"image_url":null,"decayed_at":null,"tle_current":{"epoch":"2026-09-20T14:32:45.981600Z","epoch_age_seconds":131209,"freshness":"FRESH","line1":"1 53318U 22088C   26263.60608775  .00005616  00000+0  21407-3 0  9992","line2":"2 53318  34.9885 326.3519 0012056 162.2570 197.8568 15.25977005230926","mean_motion":15.25977005,"eccentricity":0.0012056,"inclination_deg":34.9885,"raan_deg":326.3519,"arg_perigee_deg":162.257,"mean_anomaly_deg":197.8568,"bstar":0.00021407,"rev_number":23092,"period_min":94.365773224741,"perigee_km":479.57560325496,"apogee_km":496.13087892427,"semimajor_km":6865.9902410896,"source":"CELESTRAK","updated_at":"2026-09-21T09:00:08.993696Z"}}}